• In Kazakhstan
  • List of Countries
  • For 7 days
  • Water Temperature
  • Satellite Maps
  • Weather Map
  • News
  • Weather Widgets
  • user-avatar
    Login

    Hourly Weather Ajdyn

    Today, 19 August, Saturday

    Time Temperature Precipitation Wind Pressure Humidity
    00:00 +27°C° 0 mm 1 mps 755 mmHg 66%
    01:00 +27°C° 0 mm 1 mps 755 mmHg 67%
    02:00 +26°C° 0 mm 1 mps 755 mmHg 69%
    03:00 +26°C° 0 mm 2 mps 755 mmHg 70%
    04:00 +26°C° 0 mm 2 mps 755 mmHg 71%
    05:00 +25°C° 0 mm 2 mps 755 mmHg 72%
    06:00 +27°C° 0 mm 2 mps 755 mmHg 65%
    07:00 +29°C° 0 mm 2 mps 755 mmHg 58%
    08:00 +31°C° 0 mm 2 mps 755 mmHg 52%
    09:00 +34°C° 0 mm 2 mps 755 mmHg 45%
    10:00 +36°C° 0 mm 2 mps 755 mmHg 39%
    11:00 +38°C° 0 mm 2 mps 755 mmHg 33%
    12:00 +39°C° 0 mm 2 mps 755 mmHg 31%
    13:00 +39°C° 0 mm 3 mps 755 mmHg 30%
    14:00 +40°C° 0 mm 3 mps 755 mmHg 28%
    15:00 +38°C° 0 mm 3 mps 755 mmHg 31%
    16:00 +37°C° 0 mm 3 mps 755 mmHg 34%
    17:00 +36°C° 0 mm 3 mps 755 mmHg 37%
    18:00 +34°C° 0 mm 2 mps 755 mmHg 42%
    19:00 +32°C° 0 mm 2 mps 755 mmHg 48%
    20:00 +30°C° 0 mm 2 mps 755 mmHg 53%
    21:00 +29°C° 0 mm 2 mps 755 mmHg 56%
    22:00 +28°C° 0 mm 1 mps 755 mmHg 59%
    23:00 +27°C° 0 mm 1 mps 756 mmHg 62%

    Tomorrow, 20 August, Sunday

    Time Temperature Precipitation Wind Pressure Humidity
    00:00 +27°C° 0 mm 1 mps 755 mmHg 61%
    01:00 +27°C° 0 mm 1 mps 755 mmHg 60%
    02:00 +27°C° 0 mm 1 mps 755 mmHg 59%
    03:00 +27°C° 0 mm 1 mps 755 mmHg 60%
    04:00 +27°C° 0 mm 1 mps 755 mmHg 60%
    05:00 +27°C° 0 mm 2 mps 755 mmHg 60%
    06:00 +28°C° 0 mm 2 mps 755 mmHg 56%
    07:00 +29°C° 0 mm 2 mps 755 mmHg 52%
    08:00 +31°C° 0 mm 2 mps 755 mmHg 48%
    09:00 +34°C° 0 mm 2 mps 755 mmHg 43%
    10:00 +36°C° 0 mm 2 mps 755 mmHg 38%
    11:00 +38°C° 0 mm 2 mps 755 mmHg 32%
    12:00 +38°C° 0 mm 2 mps 754 mmHg 32%
    13:00 +38°C° 0 mm 3 mps 754 mmHg 31%
    14:00 +39°C° 0 mm 3 mps 754 mmHg 30%
    15:00 +37°C° 0.1 mm 3 mps 753 mmHg 34%
    16:00 +36°C° 0.1 mm 3 mps 753 mmHg 38%
    17:00 +34°C° 0.1 mm 3 mps 753 mmHg 42%
    18:00 +32°C° 0.1 mm 2 mps 753 mmHg 47%
    19:00 +31°C° 0.1 mm 2 mps 754 mmHg 52%
    20:00 +29°C° 0.1 mm 2 mps 754 mmHg 58%
    21:00 +28°C° 0.4 mm 1 mps 754 mmHg 63%
    22:00 +27°C° 0.4 mm 1 mps 754 mmHg 68%
    23:00 +26°C° 0.4 mm 1 mps 754 mmHg 74%

    Day after tomorrow, 21 August, Monday

    Time Temperature Precipitation Wind Pressure Humidity
    00:00 +26°C° 0.1 mm 1 mps 754 mmHg 75%
    01:00 +26°C° 0.1 mm 1 mps 754 mmHg 75%
    02:00 +25°C° 0.1 mm 1 mps 754 mmHg 76%
    03:00 +25°C° 0.1 mm 1 mps 754 mmHg 76%
    04:00 +25°C° 0.1 mm 1 mps 754 mmHg 75%
    05:00 +25°C° 0.1 mm 1 mps 753 mmHg 75%
    06:00 +26°C° 0.1 mm 1 mps 753 mmHg 70%
    07:00 +28°C° 0.1 mm 1 mps 753 mmHg 64%
    08:00 +29°C° 0.1 mm 1 mps 754 mmHg 58%
    09:00 +31°C° 0 mm 1 mps 754 mmHg 51%
    10:00 +33°C° 0 mm 1 mps 754 mmHg 44%
    11:00 +35°C° 0 mm 1 mps 754 mmHg 36%
    12:00 +37°C° 0 mm 2 mps 754 mmHg 34%
    13:00 +37°C° 0 mm 3 mps 753 mmHg 32%
    14:00 +38°C° 0 mm 4 mps 753 mmHg 30%
    15:00 +37°C° 0 mm 4 mps 753 mmHg 33%
    16:00 +36°C° 0 mm 4 mps 753 mmHg 37%
    17:00 +35°C° 0 mm 4 mps 753 mmHg 40%
    18:00 +33°C° 0 mm 3 mps 753 mmHg 47%
    19:00 +30°C° 0 mm 2 mps 754 mmHg 54%
    20:00 +28°C° 0 mm 1 mps 754 mmHg 60%
    21:00 +27°C° 0 mm 1 mps 754 mmHg 63%
    22:00 +26°C° 0 mm 1 mps 755 mmHg 65%
    23:00 +26°C° 0 mm 1 mps 755 mmHg 68%

    22 August, Tuesday

    Time Temperature Precipitation Wind Pressure Humidity
    00:00 +25°C° 0 mm 1 mps 755 mmHg 68%
    01:00 +25°C° 0 mm 1 mps 755 mmHg 68%
    02:00 +25°C° 0 mm 2 mps 755 mmHg 68%
    03:00 +25°C° 0 mm 2 mps 755 mmHg 68%
    04:00 +24°C° 0 mm 2 mps 755 mmHg 68%
    05:00 +24°C° 0 mm 2 mps 755 mmHg 68%
    06:00 +26°C° 0 mm 2 mps 755 mmHg 61%
    07:00 +28°C° 0 mm 2 mps 755 mmHg 54%
    08:00 +30°C° 0 mm 2 mps 755 mmHg 46%
    09:00 +32°C° 0 mm 2 mps 755 mmHg 39%
    10:00 +34°C° 0 mm 3 mps 755 mmHg 32%
    11:00 +36°C° 0 mm 3 mps 755 mmHg 25%
    12:00 +37°C° 0 mm 4 mps 755 mmHg 24%
    13:00 +38°C° 0 mm 4 mps 755 mmHg 23%
    14:00 +40°C° 0 mm 5 mps 754 mmHg 22%
    15:00 +39°C° 0 mm 5 mps 754 mmHg 24%
    16:00 +37°C° 0 mm 5 mps 754 mmHg 26%
    17:00 +38°C° 0 mm 6 mps 754 mmHg 29%
    18:00 +34°C° 0 mm 5 mps 754 mmHg 35%
    19:00 +32°C° 0 mm 4 mps 755 mmHg 41%
    20:00 +29°C° 0 mm 3 mps 755 mmHg 47%
    21:00 +28°C° 0 mm 3 mps 755 mmHg 51%
    22:00 +27°C° 0 mm 3 mps 755 mmHg 54%
    23:00 +26°C° 0 mm 3 mps 756 mmHg 57%

    23 August, Wednesday

    Time Temperature Precipitation Wind Pressure Humidity
    00:00 +26°C° 0 mm 3 mps 755 mmHg 60%
    01:00 +25°C° 0 mm 3 mps 755 mmHg 63%
    02:00 +25°C° 0 mm 3 mps 755 mmHg 66%
    03:00 +24°C° 0 mm 3 mps 755 mmHg 68%
    04:00 +24°C° 0 mm 3 mps 755 mmHg 70%
    05:00 +22°C° 0 mm 3 mps 755 mmHg 73%
    06:00 +25°C° 0 mm 3 mps 755 mmHg 66%
    07:00 +27°C° 0 mm 3 mps 756 mmHg 60%
    08:00 +29°C° 0 mm 4 mps 756 mmHg 53%
    09:00 +32°C° 0 mm 4 mps 756 mmHg 46%
    10:00 +34°C° 0 mm 4 mps 756 mmHg 40%
    11:00 +36°C° 0 mm 4 mps 756 mmHg 33%
    12:00 +37°C° 0 mm 4 mps 755 mmHg 30%
    13:00 +38°C° 0 mm 4 mps 755 mmHg 27%
    14:00 +40°C° 0 mm 5 mps 755 mmHg 25%
    15:00 +40°C° 0 mm 5 mps 755 mmHg 24%
    16:00 +39°C° 0 mm 6 mps 755 mmHg 24%
    17:00 +39°C° 0 mm 6 mps 755 mmHg 24%
    18:00 +35°C° 0 mm 5 mps 755 mmHg 27%
    19:00 +33°C° 0 mm 5 mps 755 mmHg 31%
    20:00 +29°C° 0 mm 4 mps 755 mmHg 34%
    21:00 +28°C° 0 mm 4 mps 755 mmHg 37%
    22:00 +27°C° 0 mm 4 mps 755 mmHg 40%
    23:00 +25°C° 0 mm 4 mps 755 mmHg 43%

    24 August, Thursday

    Time Temperature Precipitation Wind Pressure Humidity
    00:00 +25°C° 0 mm 3 mps 755 mmHg 45%
    01:00 +24°C° 0 mm 3 mps 755 mmHg 47%
    02:00 +24°C° 0 mm 3 mps 755 mmHg 49%
    03:00 +24°C° 0 mm 3 mps 755 mmHg 50%
    04:00 +22°C° 0 mm 3 mps 755 mmHg 50%
    05:00 +22°C° 0 mm 3 mps 755 mmHg 50%
    06:00 +25°C° 0 mm 3 mps 755 mmHg 45%
    07:00 +27°C° 0 mm 3 mps 755 mmHg 40%
    08:00 +29°C° 0 mm 3 mps 755 mmHg 35%
    09:00 +33°C° 0 mm 3 mps 755 mmHg 31%
    10:00 +35°C° 0 mm 3 mps 755 mmHg 27%
    11:00 +38°C° 0 mm 3 mps 755 mmHg 23%
    12:00 +39°C° 0 mm 3 mps 755 mmHg 22%
    13:00 +41°C° 0 mm 4 mps 755 mmHg 21%
    14:00 +42°C° 0 mm 4 mps 755 mmHg 19%
    15:00 +41°C° 0 mm 4 mps 755 mmHg 20%
    16:00 +41°C° 0 mm 4 mps 755 mmHg 20%
    17:00 +40°C° 0 mm 5 mps 755 mmHg 20%
    18:00 +36°C° 0 mm 4 mps 755 mmHg 24%
    19:00 +34°C° 0 mm 4 mps 755 mmHg 27%
    20:00 +30°C° 0 mm 4 mps 755 mmHg 31%
    21:00 +29°C° 0 mm 4 mps 756 mmHg 33%
    22:00 +27°C° 0 mm 4 mps 756 mmHg 35%
    23:00 +26°C° 0 mm 3 mps 756 mmHg 37%
    Show more